Fort Indiantown Gap, PA

12:14 AM EST on December 10, 2019 (GMT -0500)
Muir Army Air Field

Weather History for KMUI - October, 2019

Change the Weather History Date:

Wednesday, October 30, 2019

  Actual Average Record
Temperature  
Mean Temperature 58 °F -  
Max Temperature 63 °F 57 °F 77 °F (2016)
Min Temperature 53 °F 39 °F 30 °F (2007)
Degree Days  
Heating Degree Days 7    
Growing Degree Days 8 (Base 50)    
Moisture  
Dew Point 56 °F    
Average Humidity 88    
Maximum Humidity 100    
Minimum Humidity 72    
Precipitation  
Precipitation 0.75 in - - ()
Sea Level Pressure  
Sea Level Pressure 30.16 in    
Wind  
Wind Speed 1 mph (ENE)    
Max Wind Speed 7 mph    
Max Gust Speed -    
Visibility 6 miles    
Events Rain    
Averages and records for this station are not official NWS values.
T = Trace of Precipitation, MM = Missing Value Source: NWS Daily Summary

Daily Weather History Graph

Daily Weather History Graph

Search for Another Location

Airport or City:

Astronomy

Oct. 30, 2019 Rise Set
Actual Time 7:33 AM EDT 6:05 PM EDT
Civil Twilight 7:05 AM EDT 6:33 PM EDT
Nautical Twilight 6:33 AM EDT 7:05 PM EDT
Astronomical Twilight 6:01 AM EDT 7:37 PM EDT
Moon 10:14 AM EDT (10/30) 8:11 PM EDT (10/30)
Length of Visible Light 11h 28m
Length of Day
10h 32m
Waxing Crescent, 8% of the Moon is Illuminated
Oct 30
Waxing Crescent
Nov 4
First Quarter
Nov 12
Full
Nov 19
Last Quarter
Nov 26
New

Hourly Weather History & Observations

Time (EDT) Temp. Dew Point Humidity Pressure Visibility Wind Dir Wind Speed Gust Speed Precip Events Conditions
5:56 AM 53.8 °F 51.3 °F 91% 30.27 in 10.0 mi Calm Calm - N/A   Overcast
6:56 AM 54.1 °F 51.6 °F 91% 30.28 in 10.0 mi NE 3.5 mph - N/A   Overcast
7:56 AM 54.1 °F 51.6 °F 91% 30.27 in 10.0 mi ENE 3.5 mph - N/A   Overcast
8:56 AM 55.4 °F 52.2 °F 89% 30.29 in 10.0 mi Calm Calm - N/A   Overcast
9:36 AM 57.2 °F 53.6 °F 88% 30.28 in 6.0 mi East 3.5 mph - N/A   Overcast
9:56 AM 57.7 °F 54.0 °F 87% 30.28 in 8.0 mi Calm Calm - N/A   Overcast
10:56 AM 58.8 °F 53.2 °F 82% 30.29 in 10.0 mi Calm Calm - N/A   Overcast
11:56 AM 60.6 °F 53.4 °F 77% 30.27 in 10.0 mi Calm Calm - N/A   Overcast
12:56 PM 61.3 °F 53.8 °F 76% 30.25 in 10.0 mi Calm Calm - N/A   Overcast
1:04 PM 60.8 °F 53.6 °F 77% 30.24 in 10.0 mi ENE 3.5 mph - N/A   Overcast
1:36 PM 62.6 °F 53.6 °F 72% 30.23 in 10.0 mi Calm Calm - N/A   Overcast
2:48 PM - - N/A% 30.19 in 6.2 mi East 5.8 mph - N/A   Overcast
2:56 PM 63.0 °F 53.8 °F 72% 30.19 in 10.0 mi Calm Calm - N/A   Overcast
3:28 PM 62.6 °F 53.6 °F 72% 30.18 in 10.0 mi ENE 4.6 mph - N/A   Overcast
3:56 PM 62.8 °F 53.6 °F 72% 30.18 in 10.0 mi ENE 5.8 mph - N/A   Overcast
4:53 PM 62.6 °F 55.4 °F 77% 30.16 in 10.0 mi East 6.9 mph - N/A   Mostly Cloudy
4:56 PM 62.1 °F 54.7 °F 77% 30.17 in 10.0 mi ENE 5.8 mph - N/A   Mostly Cloudy
5:56 PM 60.8 °F 55.6 °F 83% 30.16 in 10.0 mi Calm Calm - N/A   Overcast
6:56 PM 60.1 °F 56.1 °F 87% 30.15 in 10.0 mi Calm Calm - N/A   Overcast
7:12 PM 60.8 °F 55.4 °F 82% 30.15 in 10.0 mi Calm Calm - N/A   Overcast
7:41 PM 60.8 °F 57.2 °F 88% 30.14 in 10.0 mi Calm Calm - N/A   Light Drizzle
7:46 PM 60.8 °F 57.2 °F 88% 30.14 in 10.0 mi ENE 3.5 mph - N/A Rain Light Rain
8:46 PM 59.0 °F 57.2 °F 94% 30.12 in 3.0 mi ENE 3.5 mph - N/A Rain Heavy Rain
8:56 PM 58.8 °F 57.7 °F 96% 30.12 in 3.0 mi Calm Calm - 0.05 in Rain Light Rain
9:12 PM 59.0 °F 57.2 °F 94% 30.11 in 3.0 mi Calm Calm - N/A Rain Light Rain
9:43 PM 59.0 °F 59.0 °F 100% 30.11 in 2.2 mi Calm Calm - N/A Rain Rain
9:56 PM 58.5 °F 58.1 °F 99% 30.10 in 2.0 mi Calm Calm - 0.13 in Rain Heavy Rain
10:04 PM 59.0 °F 59.0 °F 100% 30.11 in 2.0 mi Calm Calm - N/A Rain Rain
10:42 PM 59.0 °F 59.0 °F 100% 30.09 in 1.0 mi Calm Calm - N/A Rain Heavy Rain
10:50 PM 59.0 °F 57.2 °F 94% 30.09 in 0.9 mi Calm Calm - N/A Rain Heavy Rain
10:56 PM 58.3 °F 57.9 °F 99% 30.09 in 0.8 mi Calm Calm - 0.24 in Rain Heavy Rain
11:12 PM 59.0 °F 57.2 °F 94% 30.08 in 1.0 mi Calm Calm - N/A Rain Heavy Rain
11:14 PM 59.0 °F 57.2 °F 94% 30.08 in 1.1 mi Calm Calm - N/A Rain Heavy Rain
11:22 PM 59.0 °F 57.2 °F 94% 30.07 in 1.2 mi Calm Calm - N/A Rain Heavy Rain
11:38 PM 59.0 °F 57.2 °F 94% 30.07 in 1.5 mi Calm Calm - N/A Rain Rain
11:46 PM 59.0 °F 57.2 °F 94% 30.07 in 1.2 mi Calm Calm - N/A Rain Heavy Rain
11:54 PM 59.0 °F 57.2 °F 94% 30.06 in 1.9 mi Calm Calm - N/A Rain Rain
11:56 PM 58.3 °F 57.9 °F 99% 30.06 in 2.2 mi Calm Calm - 0.33 in Rain Rain